Humidity-temperature Sensor

Selected Measurement Type: Relative Humidity

 
Relative Humidity [%]     6 entries per hour
Showing data from 7/24/2014 (00:00:00 Z) to 7/23/2014 (00:01:00 Z)
Previous Next [ Day | 3-Days | 7-Days ]
First Last
Prev [ Day | 3-Days | 7-Days ] Next
First Last

Start Time:     :
End Time:     :     
Time (in GMT) :00 :50 :40 :30 :20 :10
Previous Next [ Day | 3-Days | 7-Days ]
First Last
Prev [ Day | 3-Days | 7-Days ] Next
First Last


123 => good data
MM => data is determined as missing
-- => data not received/configured
Back to Top Back to Top
7/24/2014 00:00 to 23:10 85.84 85.86 85.46 85.64 85.20 85.16
7/23/2014 23:00 to 22:10 85.92 86.25 85.88 86.07 85.52 85.32
7/23/2014 22:00 to 21:10 86.35 86.67 86.37 86.39 85.99 88.90
7/23/2014 21:00 to 20:10 91.04 89.50 87.83 87.14 88.07 87.91
7/23/2014 20:00 to 19:10 89.81 90.98 91.75 92.88 91.99 86.31
7/23/2014 19:00 to 18:10 86.51 86.45 84.65 84.93 85.60 87.72
7/23/2014 18:00 to 17:10 85.42 83.90 84.57 84.75 85.88 85.72
7/23/2014 17:00 to 16:10 86.31 87.99 86.92 85.22 84.57 84.06
7/23/2014 16:00 to 15:10 84.06 84.39 85.52 84.75 83.64 83.96
7/23/2014 15:00 to 14:10 -- -- -- -- -- --
7/23/2014 14:00 to 13:10 84.75 83.82 84.99 85.92 85.38 86.15
7/23/2014 13:00 to 12:10 85.72 85.26 86.35 86.35 86.94 86.59
7/23/2014 12:00 to 11:10 85.94 86.25 87.02 86.15 86.51 86.53
7/23/2014 11:00 to 10:10 86.23 86.21 85.90 85.52 84.69 85.06
7/23/2014 10:00 to 9:10 84.65 84.93 85.14 84.63 84.47 84.77
7/23/2014 09:00 to 8:10 85.62 85.68 83.76 84.53 83.76 84.06
7/23/2014 08:00 to 7:10 84.23 85.14 84.69 83.92 84.65 84.00
7/23/2014 07:00 to 6:10 84.21 83.74 84.45 82.73 84.06 83.52
7/23/2014 06:00 to 5:10 83.13 81.90 82.31 82.65 83.94 82.85
7/23/2014 05:00 to 4:10 81.88 82.31 81.96 81.68 81.80 82.31
7/23/2014 04:00 to 3:10 82.79 83.42 83.56 84.51 84.29 84.53
7/23/2014 03:00 to 2:10 85.62 85.68 86.98 86.41 85.82 84.47
7/23/2014 02:00 to 1:10 85.56 85.30 85.66 86.13 86.43 86.45
7/23/2014 01:00 to 0:10 86.79 86.01 85.72 85.58 84.81 84.81